Location: Bouchavesnes-Bergen
(49.9859°N, 2.9203°E)
Time: 03:38:32
(UTC+00:00)

Cosmos 1805 Rocket - Pass Details

Date: 09 March 2021
Orbit: 606 x 629 km, 82.5° (Epoch: 11 April)

Event Time Altitude Azimuth Distance (km) Brightness Sun altitude
Rises 04:26:05 0° 344° (NNW) 2,934 7.0 -18.2°
Reaches altitude 10° 04:28:24 10° 338° (NNW) 2,021 6.1 -17.8°
Maximum altitude 04:32:39 44° 267° (W) 880 3.9 -17.1°
Drops below altitude 10° 04:36:52 10° 196° (SSW) 2,000 5.9 -16.5°
Sets 04:39:09 0° 190° (S) 2,900 6.8 -16.1°
